Regional Weather Roundup
Issued by NWS Cleveland, OH

Home | Current Version | Previous Version | Graphics & Text | Print | Product List | Glossary On
Versions: 1 2 3 4 5 6 7 8 9 10 11 12 13 14 15 16 17 18 19 20 21 22 23 24 25 26 27 28 29 30 31 32 33 34 35 36 37 38 39 40 41 42 43 44 45 46 47 48 49 50
000
ASUS41 KCLE 222100
RWRCLE
OHIO REGIONAL WEATHER ROUNDUP
NATIONAL WEATHER SERVICE WILMINGTON, OH
500 PM EDT FRI MAY 22 2015

NOTE: "FAIR" INDICATES FEW OR NO CLOUDS BELOW 12,000 FEET WITH NO
SIGNIFICANT WEATHER AND/OR OBSTRUCTIONS TO VISIBILITY.

OHZ001>008-015>018-024>027-034-035-043-044-222200-
   NORTHWEST OHIO

CITY           SKY/WX    TMP DP  RH WIND       PRES   REMARKS
DEFIANCE       SUNNY     70  32  24 VRB6G17   30.22R
FINDLAY        SUNNY     72  32  23 NW12      30.20R
TOLEDO EXPRESS SUNNY     68  28  22 MISG      30.21S
TOLEDO EXEC    SUNNY     70  28  21 W15G22    30.22R
LIMA           SUNNY     70  32  24 NW10      30.21R
$$

OHZ009>014-019>023-028>033-038-089-222200-
   NORTHEAST OHIO

CITY           SKY/WX    TMP DP  RH WIND       PRES   REMARKS
CLE-HOPKINS    SUNNY     60  34  37 N12       30.26R
CLE-LAKEFRONT  SUNNY     58  38  47 N6        30.25R
CUY CO. ARPT   SUNNY     59  34  38 NW14      30.25R
LORAIN-ELYRIA  SUNNY     62  30  29 NE14      30.23S
ASHTABULA      SUNNY     56  26  31 NW14G25   30.25R
AKRON-CANTON   SUNNY     66  30  26 NW12G23   30.20S
WOOSTER        NOT AVBL
MANSFIELD        N/A    N/A N/A N/A MISG      30.21R
YOUNGSTOWN     MOSUNNY   61  32  33 NW20      30.21R
$$

OHZ042-051>053-060>062-070>072-077>081-222200-
  SOUTHWEST OHIO

CITY           SKY/WX    TMP DP  RH WIND       PRES   REMARKS
CINC-COVINGTON PTSUNNY   74  47  38 SW14      30.21S
CINC-LUNKEN    MOSUNNY   74  47  38 SW16G23   30.20F
HAMILTON       MOSUNNY   74  46  36 W8G20     30.20S
DAYTON         NOT AVBL
WRIGHT-PAT AFB NOT AVBL
DAYTON GENERAL MOSUNNY   73  43  33 W12G22    30.18F
WILMINGTON     MOSUNNY   73  42  32 W16       30.19S
$$

OHZ036-037-039>041-045>050-054>059-063>069-073>076-082>088-222200-
  CENTRAL AND SOUTHEAST OHIO

CITY           SKY/WX    TMP DP  RH WIND       PRES   REMARKS
COLUMBUS       PTSUNNY   70  49  47 N9G17     30.17S
OSU AIRPORT    MOSUNNY   74  48  39 NW12      30.17R
BOLTON FIELD   PTSUNNY   70  48  46 W7        30.18S
RICKENBACK AFB NOT AVBL
NEWARK         MOSUNNY   71  48  43 NW10      30.17S
MARION         SUNNY     70  30  22 NW15      30.20S
LANCASTER      RAIN      67  48  50 NW13G23   30.19R
ZANESVILLE     MOSUNNY   69  47  45 NW14      30.18R
NEW PHILLY     MOSUNNY   70  36  28 N12       30.19S
$$


USA.gov is the U.S. government's official web portal to all federal, state and local government web resources and services.